Overview Statistics Trail Chart Weather Telemetry Raw packets
 

This is the latest recevied weather packets stored in our database for station/object SR4DIG-13. If no packets are shown the sender has not sent any weather packets the latest 10 day(s).

<< 73 74 75 76 77 78 79 >>
Time Temp. Humidity Pressure Rain* Wind** Luminosity Snow
1788084623 26.11° C 46% 1015.5 hPa 0 mm - - -
1788084322 26.67° C 46% 1015.5 hPa 0 mm - - -
1788084021 27.22° C 47% 1015.5 hPa 0 mm - - -
1788083720 26.67° C 46% 1015.5 hPa 0 mm - - -
1788083419 26.11° C 47% 1015.5 hPa 0 mm - - -
1788083119 26.11° C 48% 1015.6 hPa 0 mm - - -
1788082818 25.56° C 49% 1015.6 hPa 0 mm - - -
1788082517 26.11° C 47% 1015.6 hPa 0 mm - - -
1788082216 26.67° C 47% 1015.7 hPa 0 mm - - -
1788081915 27.22° C 45% 1015.7 hPa 0 mm - - -
1788081614 27.78° C 44% 1015.7 hPa 0 mm - - -
1788081313 28.89° C 43% 1015.8 hPa 0 mm - - -
1788081012 28.33° C 46% 1015.8 hPa 0 mm - - -
1788080433 28.89° C 48% 1015.7 hPa 0 mm - - -
1788080132 27.78° C 49% 1015.7 hPa 0 mm - - -
1788079832 27.78° C 49% 1015.7 hPa 0 mm - - -
1788079531 27.22° C 50% 1015.8 hPa 0 mm - - -
1788078929 26.67° C 51% 1015.9 hPa 0 mm - - -
1788078628 26.67° C 50% 1016 hPa 0 mm - - -
1788078327 27.22° C 50% 1016 hPa 0 mm - - -
1788078026 27.22° C 50% 1016 hPa 0 mm - - -
1788077725 28.33° C 47% 1015.9 hPa 0 mm - - -
1788077424 28.89° C 51% 1015.8 hPa 0 mm - - -
1788077123 28.33° C 52% 1015.8 hPa 0 mm - - -
1788076822 28.33° C 52% 1015.9 hPa 0 mm - - -

* Rain latest hour (hover to see other rain measurements)
** Current wind speed in m/s (hover to see current wind gust speed)